EZY13VN EGKK-LFST

Flight info

Callsign EZY13VN
Flight time 1h 2m
Altitude 29000
Route SFD Y47 BENBO L612 HAWKE UL612 VEULE DCT TEPRI UN491 POGZI DCT GELTA DCT LUVAL/N0433F280 DCT EPL
Aircraft A320/M-SDE3FGHIRWY/LB1

Departure

Time 2026-05-05 18:42
Airport London Gatwick Airport (EGKK)

Arrival

Time 2026-05-05 19:44
Airport Strasbourg Airport (LFST)
Time Latitude Longitude Altitude Speed Heading
2026-05-05 18:04 51.15599 -0.17560 216 ft 0 kts 329°
2026-05-05 18:05 51.15600 -0.17562 216 ft 0 kts 329°
2026-05-05 18:31 51.15580 -0.17543 214 ft 4 kts 330°
2026-05-05 18:31 51.15557 -0.17521 215 ft 4 kts 321°
2026-05-05 18:31 51.15542 -0.17493 210 ft 4 kts 268°
2026-05-05 18:32 51.15542 -0.17485 210 ft 0 kts 258°
2026-05-05 18:35 51.15539 -0.17509 209 ft 8 kts 258°
2026-05-05 18:35 51.15522 -0.17632 204 ft 14 kts 258°
2026-05-05 18:35 51.15497 -0.17811 206 ft 20 kts 257°
2026-05-05 18:36 51.15465 -0.18043 204 ft 22 kts 257°
2026-05-05 18:36 51.15434 -0.18242 204 ft 17 kts 244°
2026-05-05 18:36 51.15335 -0.18258 204 ft 15 kts 168°
2026-05-05 18:36 51.15229 -0.18222 204 ft 16 kts 174°
2026-05-05 18:37 51.15183 -0.18349 208 ft 14 kts 259°
2026-05-05 18:37 51.15163 -0.18494 208 ft 14 kts 257°
2026-05-05 18:37 51.15138 -0.18672 207 ft 17 kts 258°
2026-05-05 18:37 51.15114 -0.18846 213 ft 15 kts 258°
2026-05-05 18:38 51.15093 -0.19000 208 ft 13 kts 257°
2026-05-05 18:38 51.15074 -0.19141 205 ft 15 kts 257°
2026-05-05 18:38 51.15027 -0.19264 208 ft 12 kts 191°
2026-05-05 18:38 51.14962 -0.19307 213 ft 12 kts 234°
2026-05-05 18:39 51.14937 -0.19466 211 ft 15 kts 258°
2026-05-05 18:39 51.14916 -0.19624 206 ft 14 kts 258°
2026-05-05 18:39 51.14897 -0.19761 215 ft 12 kts 258°
2026-05-05 18:39 51.14876 -0.19912 208 ft 21 kts 257°
2026-05-05 18:40 51.14839 -0.20174 212 ft 26 kts 257°
2026-05-05 18:40 51.14800 -0.20456 212 ft 24 kts 257°
2026-05-05 18:40 51.14768 -0.20668 209 ft 16 kts 249°
2026-05-05 18:40 51.14683 -0.20709 204 ft 13 kts 169°
2026-05-05 18:41 51.14604 -0.20660 214 ft 15 kts 128°
2026-05-05 18:41 51.14639 -0.20306 206 ft 69 kts 77°
2026-05-05 18:41 51.14804 -0.19106 212 ft 148 kts 77°
2026-05-05 18:41 51.15066 -0.17274 622 ft 174 kts 76°
2026-05-05 18:42 51.15335 -0.15398 1663 ft 171 kts 77°
2026-05-05 18:42 51.15594 -0.13510 2198 ft 183 kts 76°
2026-05-05 18:42 51.15876 -0.11435 2480 ft 205 kts 76°
2026-05-05 18:42 51.16175 -0.09085 2906 ft 222 kts 82°
2026-05-05 18:43 51.15846 -0.06667 3623 ft 233 kts 122°
2026-05-05 18:43 51.14595 -0.05003 4254 ft 249 kts 155°
2026-05-05 18:43 51.12930 -0.04156 5016 ft 255 kts 166°
2026-05-05 18:43 51.11182 -0.03510 5799 ft 259 kts 165°
2026-05-05 18:44 51.09421 -0.02752 6503 ft 271 kts 164°
2026-05-05 18:44 51.07561 -0.01902 7114 ft 284 kts 163°
2026-05-05 18:44 51.05643 -0.01015 7727 ft 290 kts 163°
2026-05-05 18:44 51.03704 -0.00122 7901 ft 290 kts 163°
2026-05-05 18:45 51.01765 0.00762 7978 ft 290 kts 163°
2026-05-05 18:45 50.99821 0.01643 7974 ft 290 kts 163°
2026-05-05 18:45 50.97855 0.02528 8557 ft 295 kts 164°
2026-05-05 18:45 50.95878 0.03412 9475 ft 298 kts 164°
2026-05-05 18:46 50.93870 0.04306 9818 ft 300 kts 164°
2026-05-05 18:46 50.91895 0.05188 9922 ft 298 kts 164°
2026-05-05 18:46 50.89905 0.06075 9936 ft 297 kts 164°
2026-05-05 18:46 50.87907 0.06961 9949 ft 299 kts 164°
2026-05-05 18:47 50.85885 0.07853 10535 ft 303 kts 164°
2026-05-05 18:47 50.83850 0.08753 11385 ft 305 kts 163°
2026-05-05 18:47 50.81799 0.09662 12201 ft 307 kts 163°
2026-05-05 18:47 50.79738 0.10573 13082 ft 308 kts 163°
2026-05-05 18:48 50.77626 0.11396 13597 ft 323 kts 171°
2026-05-05 18:48 50.75302 0.11678 13768 ft 346 kts 175°
2026-05-05 18:48 50.72852 0.11868 14195 ft 357 kts 176°
2026-05-05 18:48 50.70358 0.12060 14774 ft 362 kts 176°
2026-05-05 18:49 50.67819 0.12242 15388 ft 367 kts 176°
2026-05-05 18:49 50.65249 0.12233 15968 ft 373 kts 182°
2026-05-05 18:49 50.62683 0.12008 16611 ft 376 kts 183°
2026-05-05 18:49 50.60060 0.11715 16868 ft 378 kts 184°
2026-05-05 18:50 50.57438 0.11384 17021 ft 379 kts 184°
2026-05-05 18:50 50.54794 0.11040 17646 ft 382 kts 184°
2026-05-05 18:50 50.52131 0.10704 18254 ft 387 kts 184°
2026-05-05 18:50 50.49434 0.10380 18813 ft 389 kts 184°
2026-05-05 18:51 50.46722 0.10233 19345 ft 392 kts 174°
2026-05-05 18:51 50.44070 0.11183 19880 ft 392 kts 156°
2026-05-05 18:51 50.41730 0.13355 20396 ft 393 kts 138°
2026-05-05 18:51 50.39935 0.16488 20898 ft 393 kts 124°
2026-05-05 18:52 50.38339 0.19980 21419 ft 395 kts 123°
2026-05-05 18:52 50.36735 0.23502 21917 ft 399 kts 124°
2026-05-05 18:52 50.35120 0.27052 22416 ft 402 kts 123°
2026-05-05 18:52 50.33491 0.30630 22888 ft 405 kts 123°
2026-05-05 18:53 50.31848 0.34226 23370 ft 408 kts 124°
2026-05-05 18:53 50.30186 0.37846 23791 ft 411 kts 124°
2026-05-05 18:53 50.28511 0.41472 24221 ft 412 kts 124°
2026-05-05 18:53 50.26826 0.45108 24653 ft 414 kts 124°
2026-05-05 18:54 50.25139 0.48752 25095 ft 414 kts 126°
2026-05-05 18:54 50.23450 0.52404 25558 ft 415 kts 126°
2026-05-05 18:54 50.21764 0.56057 25994 ft 415 kts 126°
2026-05-05 18:54 50.20093 0.59674 26375 ft 417 kts 126°
2026-05-05 18:55 50.18388 0.63348 26794 ft 418 kts 126°
2026-05-05 18:55 50.16673 0.67033 27155 ft 421 kts 126°
2026-05-05 18:55 50.14956 0.70720 27610 ft 421 kts 126°
2026-05-05 18:55 50.13228 0.74420 27974 ft 423 kts 126°
2026-05-05 18:56 50.11499 0.78119 28424 ft 423 kts 126°
2026-05-05 18:56 50.09761 0.81839 28770 ft 425 kts 126°
2026-05-05 18:56 50.08018 0.85564 28892 ft 423 kts 126°
2026-05-05 18:56 50.06294 0.89243 28906 ft 420 kts 126°
2026-05-05 18:57 50.02856 0.96565 28899 ft 417 kts 126°
2026-05-05 18:57 49.99447 1.03805 28900 ft 414 kts 126°
2026-05-05 18:58 49.96055 1.11001 28900 ft 415 kts 126°
2026-05-05 18:58 49.92634 1.18226 28892 ft 415 kts 126°
2026-05-05 18:59 49.89216 1.25421 28894 ft 414 kts 126°
2026-05-05 18:59 49.85799 1.32604 28887 ft 414 kts 126°
2026-05-05 19:00 49.82372 1.39775 28865 ft 415 kts 126°
2026-05-05 19:00 49.78952 1.46903 28869 ft 415 kts 126°
2026-05-05 19:01 49.75483 1.54121 28871 ft 416 kts 126°
2026-05-05 19:01 49.72054 1.61252 28878 ft 416 kts 126°
2026-05-05 19:02 49.68591 1.68430 28868 ft 417 kts 126°
2026-05-05 19:02 49.65122 1.75601 28873 ft 417 kts 126°
2026-05-05 19:03 49.61650 1.82754 28870 ft 416 kts 126°
2026-05-05 19:03 49.58170 1.89895 28864 ft 416 kts 126°
2026-05-05 19:04 49.54691 1.97022 28867 ft 416 kts 126°
2026-05-05 19:04 49.51237 2.04084 28868 ft 416 kts 126°
2026-05-05 19:05 49.47757 2.11187 28871 ft 416 kts 126°
2026-05-05 19:05 49.44269 2.18278 28866 ft 416 kts 126°
2026-05-05 19:06 49.40775 2.25358 28865 ft 416 kts 126°
2026-05-05 19:06 49.37280 2.32427 28861 ft 415 kts 126°
2026-05-05 19:07 49.33786 2.39482 28854 ft 415 kts 126°
2026-05-05 19:07 49.30307 2.46465 28847 ft 415 kts 126°
2026-05-05 19:08 49.26802 2.53498 28854 ft 415 kts 126°
2026-05-05 19:08 49.23296 2.60519 28852 ft 414 kts 126°
2026-05-05 19:09 49.19796 2.67516 28837 ft 414 kts 127°
2026-05-05 19:09 49.16290 2.74501 28838 ft 414 kts 127°
2026-05-05 19:10 49.12783 2.81467 28831 ft 414 kts 127°
2026-05-05 19:10 49.09295 2.88372 28824 ft 413 kts 127°
2026-05-05 19:11 49.05779 2.95308 28823 ft 413 kts 127°
2026-05-05 19:11 49.02265 3.02244 28840 ft 413 kts 126°
2026-05-05 19:12 48.98752 3.09150 28825 ft 412 kts 127°
2026-05-05 19:12 48.95240 3.16025 28826 ft 411 kts 127°
2026-05-05 19:13 48.91734 3.22876 28827 ft 410 kts 127°
2026-05-05 19:13 48.88252 3.29663 28825 ft 410 kts 127°
2026-05-05 19:14 48.84741 3.36486 28816 ft 410 kts 127°
2026-05-05 19:14 48.81229 3.43304 28814 ft 410 kts 128°
2026-05-05 19:15 48.77713 3.50104 28806 ft 410 kts 128°
2026-05-05 19:15 48.74196 3.56896 28811 ft 409 kts 128°
2026-05-05 19:16 48.70675 3.63677 28814 ft 409 kts 128°
2026-05-05 19:16 48.67176 3.70396 28810 ft 409 kts 128°
2026-05-05 19:17 48.63648 3.77150 28813 ft 409 kts 128°
2026-05-05 19:17 48.60117 3.83889 28812 ft 409 kts 128°
2026-05-05 19:18 48.56587 3.90633 28818 ft 409 kts 128°
2026-05-05 19:18 48.53044 3.97369 28810 ft 410 kts 128°
2026-05-05 19:19 48.50140 4.04666 28807 ft 411 kts 111°
2026-05-05 19:19 48.48544 4.12938 28806 ft 411 kts 106°
2026-05-05 19:20 48.47034 4.21252 28807 ft 412 kts 106°
2026-05-05 19:20 48.45507 4.29577 28809 ft 412 kts 106°
2026-05-05 19:21 48.43978 4.37897 28802 ft 412 kts 107°
2026-05-05 19:21 48.42445 4.46161 28802 ft 413 kts 107°
2026-05-05 19:22 48.40901 4.54486 28809 ft 413 kts 107°
2026-05-05 19:22 48.39350 4.62821 28812 ft 413 kts 107°
2026-05-05 19:23 48.37794 4.71145 28820 ft 414 kts 107°
2026-05-05 19:23 48.36225 4.79474 28805 ft 414 kts 108°
2026-05-05 19:24 48.34644 4.87806 28809 ft 415 kts 108°
2026-05-05 19:24 48.33070 4.96108 28816 ft 416 kts 108°
2026-05-05 19:25 48.31480 5.04463 28827 ft 416 kts 108°
2026-05-05 19:25 48.29912 5.12839 28828 ft 417 kts 104°
2026-05-05 19:26 48.29573 5.21566 28812 ft 423 kts 90°
2026-05-05 19:26 48.29843 5.30401 28812 ft 424 kts 90°
2026-05-05 19:27 48.30091 5.39199 28819 ft 425 kts 90°
2026-05-05 19:27 48.30338 5.48070 28758 ft 426 kts 90°
2026-05-05 19:28 48.30459 5.52506 28137 ft 424 kts 90°
2026-05-05 19:28 48.30576 5.56912 27518 ft 420 kts 90°
2026-05-05 19:28 48.30692 5.61274 26905 ft 416 kts 90°
2026-05-05 19:28 48.30807 5.65600 26310 ft 413 kts 90°
2026-05-05 19:29 48.30919 5.69887 25716 ft 409 kts 90°
2026-05-05 19:29 48.31028 5.74148 25124 ft 407 kts 90°
2026-05-05 19:29 48.31134 5.78322 24541 ft 404 kts 90°
2026-05-05 19:29 48.31239 5.82521 23972 ft 401 kts 90°
2026-05-05 19:30 48.31339 5.86692 23414 ft 398 kts 90°
2026-05-05 19:30 48.31435 5.90833 22812 ft 395 kts 90°
2026-05-05 19:30 48.31530 5.94925 22309 ft 390 kts 90°
2026-05-05 19:30 48.31623 5.98968 21816 ft 385 kts 90°
2026-05-05 19:31 48.31714 6.02959 21343 ft 380 kts 90°
2026-05-05 19:31 48.31803 6.06911 20885 ft 376 kts 90°
2026-05-05 19:31 48.31893 6.10824 20424 ft 373 kts 90°
2026-05-05 19:31 48.31987 6.14702 19979 ft 372 kts 90°
2026-05-05 19:32 48.32080 6.18679 19812 ft 387 kts 90°
2026-05-05 19:32 48.32170 6.22753 19838 ft 392 kts 90°
2026-05-05 19:32 48.32262 6.26855 19841 ft 393 kts 90°
2026-05-05 19:32 48.32352 6.30910 19843 ft 394 kts 90°
2026-05-05 19:33 48.32440 6.35023 19844 ft 394 kts 90°
2026-05-05 19:33 48.32526 6.39132 19846 ft 394 kts 90°
2026-05-05 19:33 48.32608 6.43243 19845 ft 394 kts 90°
2026-05-05 19:33 48.32689 6.47350 19521 ft 394 kts 90°
2026-05-05 19:34 48.32769 6.51520 18541 ft 403 kts 90°
2026-05-05 19:34 48.32850 6.55669 18020 ft 388 kts 90°
2026-05-05 19:34 48.32927 6.59649 17885 ft 374 kts 90°
2026-05-05 19:35 48.33070 6.67144 17435 ft 342 kts 91°
2026-05-05 19:35 48.33152 6.70631 16837 ft 335 kts 89°
2026-05-05 19:35 48.33313 6.74112 16146 ft 333 kts 87°
2026-05-05 19:35 48.33523 6.77571 15467 ft 332 kts 86°
2026-05-05 19:36 48.33749 6.81010 14788 ft 330 kts 86°
2026-05-05 19:36 48.33974 6.84435 14129 ft 329 kts 86°
2026-05-05 19:36 48.34192 6.87850 13467 ft 328 kts 86°
2026-05-05 19:36 48.34400 6.91261 12765 ft 326 kts 86°
2026-05-05 19:37 48.34597 6.94641 12109 ft 323 kts 86°
2026-05-05 19:37 48.34788 6.97985 11476 ft 320 kts 87°
2026-05-05 19:37 48.34975 7.01302 10860 ft 317 kts 87°
2026-05-05 19:37 48.35159 7.04585 10233 ft 314 kts 87°
2026-05-05 19:38 48.35336 7.07798 9613 ft 311 kts 87°
2026-05-05 19:38 48.35514 7.11028 8914 ft 309 kts 86°
2026-05-05 19:38 48.35689 7.14235 8236 ft 306 kts 87°
2026-05-05 19:38 48.35863 7.17432 7444 ft 308 kts 86°
2026-05-05 19:39 48.36038 7.20650 6808 ft 307 kts 86°
2026-05-05 19:39 48.36207 7.23803 6601 ft 298 kts 87°
2026-05-05 19:39 48.36371 7.26856 6458 ft 288 kts 86°
2026-05-05 19:39 48.36530 7.29803 6338 ft 277 kts 86°
2026-05-05 19:40 48.36794 7.32618 6181 ft 269 kts 73°
2026-05-05 19:40 48.37603 7.35134 5840 ft 270 kts 53°
2026-05-05 19:40 48.38818 7.37273 5423 ft 268 kts 47°
2026-05-05 19:40 48.40066 7.39361 5014 ft 269 kts 47°
2026-05-05 19:41 48.41299 7.41443 4608 ft 268 kts 47°
2026-05-05 19:41 48.42508 7.43501 4177 ft 256 kts 47°
2026-05-05 19:41 48.43667 7.45472 3782 ft 246 kts 47°
2026-05-05 19:41 48.44764 7.47340 3430 ft 231 kts 48°
2026-05-05 19:42 48.45794 7.49094 3068 ft 216 kts 48°
2026-05-05 19:42 48.46757 7.50735 2760 ft 202 kts 49°
2026-05-05 19:42 48.47649 7.52254 2458 ft 184 kts 49°
2026-05-05 19:42 48.48465 7.53645 2165 ft 170 kts 49°
2026-05-05 19:43 48.49227 7.54946 1904 ft 162 kts 50°
2026-05-05 19:43 48.49963 7.56204 1662 ft 158 kts 50°
2026-05-05 19:43 48.50678 7.57425 1404 ft 156 kts 50°
2026-05-05 19:43 48.51384 7.58632 1166 ft 151 kts 49°
2026-05-05 19:44 48.52076 7.59815 932 ft 148 kts 50°
2026-05-05 19:44 48.52753 7.60973 683 ft 147 kts 50°
2026-05-05 19:44 48.53423 7.62121 507 ft 140 kts 49°
2026-05-05 19:44 48.53834 7.62819 488 ft 43 kts 50°
2026-05-05 19:45 48.54018 7.63142 499 ft 39 kts 48°
2026-05-05 19:45 48.54170 7.63404 487 ft 10 kts 46°
2026-05-05 19:45 48.54225 7.63384 499 ft 8 kts 319°
2026-05-05 19:45 48.54256 7.63342 500 ft 4 kts 317°
2026-05-05 19:46 48.54266 7.63328 501 ft 0 kts 317°
2026-05-05 19:46 48.54267 7.63327 501 ft 1 kts 317°
2026-05-05 19:46 48.54286 7.63295 502 ft 4 kts 303°
2026-05-05 19:46 48.54284 7.63212 503 ft 8 kts 242°
2026-05-05 19:47 48.54259 7.63161 505 ft 4 kts 227°
2026-05-05 19:47 48.54246 7.63140 505 ft 1 kts 227°
2026-05-05 19:47 48.54236 7.63123 505 ft 8 kts 227°
2026-05-05 19:47 48.54178 7.63024 504 ft 12 kts 238°
2026-05-05 19:48 48.54193 7.62912 503 ft 11 kts 315°
2026-05-05 19:48 48.54249 7.62844 504 ft 9 kts 333°
2026-05-05 19:48 48.54301 7.62850 505 ft 7 kts 28°
2026-05-05 19:48 48.54329 7.62891 506 ft 5 kts 47°
2026-05-05 19:49 48.54351 7.62907 506 ft 3 kts 351°
2026-05-05 19:49 48.54362 7.62902 506 ft 2 kts 346°
2026-05-05 19:49 48.54388 7.62895 506 ft 4 kts 350°
2026-05-05 19:49 48.54418 7.62887 505 ft 4 kts 349°
2026-05-05 19:50 48.54428 7.62884 505 ft 0 kts 349°